Weather Roundup
Issued by NWS Springfield, MO

Home | Current Version | Previous Version | Text Only | Print | Product List | Glossary On
Versions: 1 2 3 4 5 6 7 8 9 10 11 12 13 14 15 16 17 18 19 20 21 22 23 24 25 26 27 28 29 30 31 32 33 34 35 36 37 38 39 40 41 42 43 44 45 46 47 48 49 50
947
NZUS99 KSGF 241107
HRRSGF

HOURLY WEATHER
NATIONAL WEATHER SERVICE SPRINGFIELD MO
500 AM CST FRI NOV 24 2017

......SGF CWA......

CITY           SKY/WX    TMP DP  RH WIND       PRES   REMARKS
SPRINGFIELD    CLEAR     43  31  62 S9        29.88F
JOPLIN         CLEAR     50  31  48 S9        29.88F
WEST PLAINS    CLOUDY    44  29  55 W8        29.93S
ROLLA          PTCLDY    46  32  58 S13       29.87F
OSAGE BEACH    CLOUDY    40  32  73 CALM      29.87F
BRANSON        CLEAR     50  28  43 SW5       29.92F

......SURROUNDING SGF CWA......

CITY           SKY/WX    TMP DP  RH WIND       PRES   REMARKS
CHANUTE        PTCLDY    47  32  56 S12       29.83F
PARSONS        CLOUDY    45  32  60 S6        29.86S
COFFEYVILLE    CLOUDY    44  33  65 S5        29.85F
EMPORIA        PTCLDY    47  34  60 S12       29.77S
GROVE OK       CLEAR     46  32  57 CALM      29.91S
ROGERS AR      CLEAR     44  30  57 S6        29.92F
SILOAM SPRINGS CLEAR     44  29  55 S3        29.92F
HARRISON AR    CLEAR     54  29  38 CALM      29.92F
NEAR YELLVILLE CLEAR     33  30  88 CALM      29.95S

......KANSAS AND MISSOURI......

CITY           SKY/WX    TMP DP  RH WIND       PRES   REMARKS
KANSAS CTY INT PTCLDY    52  34  50 S13       29.74F
DOWNTOWN KC    PTCLDY    53  33  46 S10       29.75F
COLUMBIA       PTCLDY    41  34  76 S7        29.83F
SEDALIA        PTCLDY    50  34  54 S13       29.83F
ST JOSEPH      CLEAR     49  36  61 SW10      29.71F
ST LOUIS       MOCLDY    42  31  64 SW3       29.87F
SPIRIT OF STL  PTCLDY    32  30  92 CALM      29.86F
KIRKSVILLE     CLEAR     46  35  65 S8        29.76F
WICHITA        PTCLDY    45  37  73 S10       29.78F
TOPEKA         PTCLDY    51  35  54 S9        29.74F
OLATHE         CLEAR     46  33  60 S10       29.78F

......TENNESSEE......

CITY           SKY/WX    TMP DP  RH WIND       PRES   REMARKS
MEMPHIS        CLEAR     39  29  67 S9        29.99F WCI  33
NASHVILLE      CLOUDY    29  25  85 S5        30.01F WCI  24

......ARKANSAS.......

CITY           SKY/WX    TMP DP  RH WIND       PRES   REMARKS
FAYETTEVILLE   CLEAR     37  32  82 S3        29.93F
FT SMITH       CLOUDY    38  33  82 E3        29.95F
LITTLE ROCK    CLEAR     35  32  88 W5        29.99S WCI  31

......OKLAHOMA.......

CITY           SKY/WX    TMP DP  RH WIND       PRES   REMARKS
TULSA          CLOUDY    49  31  49 S8        29.88F
PONCA CITY     PTCLDY    52  34  50 S7        29.81F
MCALESTER      CLEAR     51  30  44 S7        29.93F
OKLAHOMA CITY  PTCLDY    42  33  70 S9        29.86F

......IOWA............

CITY           SKY/WX    TMP DP  RH WIND       PRES   REMARKS
DES MOINES     CLEAR     50  36  58 S16       29.61F
QUAD CITIES    PTCLDY    42  31  64 SW6       29.74F

......ILLINOIS........

CITY           SKY/WX    TMP DP  RH WIND       PRES   REMARKS
QUINCY         CLOUDY    40  32  73 S9        29.80F WCI  34
CHICAGO        PTCLDY    36  27  69 S8        29.80S WCI  30




USA.gov is the U.S. government's official web portal to all federal, state and local government web resources and services.